Latest Coastal Weather Observations for Onslow Airport

IDW60701

Issued at 9:53 pm WST Monday 4 May 2026 (issued every 10 minutes, with the page automatically refreshed every 10 minutes)

About coastal observations | Map of coastal stations | Coastal observations for WA | Marine services | Other Formats
Station Details ID: 005017 Name: ONSLOW AIRPORT Lat: -21.67 Lon: 115.11 Height: 10.5 m
Data from the previous 72 hours. | See also: Recent months at Onslow Airport
Date/Time
WST
Wind Sea
Height
m
Swell Vis
km
Cloud Weather Temp
°C
Press
MSL
hPa
Rain since
9am
mm
Dir  Spd
kts
Gust
kts
Height
m
Period
s
Dir
04/09:30pm SSW 3 7 - - - - 10 - - 23.1 1016.7 0.0
04/09:00pm NNW 3 5 - - - - 10 - - 23.8 1017.0 0.0
04/08:30pm NNW 1 3 - - - - 10 - - 24.3 1016.7 0.0
04/08:00pm NNW 6 8 - - - - 10 - - 24.9 1016.7 0.0
04/07:30pm NNW 7 8 - - - - 10 - - 25.1 1016.2 0.0
04/07:00pm NW 7 8 - - - - 10 - - 25.5 1015.9 0.0
04/06:30pm NW 7 8 - - - - 10 - - 26.1 1015.7 0.0
04/06:00pm NW 7 9 - - - - 10 - - 26.4 1015.4 0.0
04/05:30pm NW 9 11 - - - - 10 - - 27.5 1015.2 0.0
04/05:00pm NNW 9 11 - - - - 10 - - 28.3 1015.1 0.0
04/04:30pm NNW 10 12 - - - - 10 - - 29.1 1015.1 0.0
04/04:00pm NNW 9 11 - - - - 10 - - 30.0 1015.0 0.0
04/03:30pm N 10 13 - - - - 10 - - 30.2 1014.9 0.0
04/03:00pm N 12 14 - - - - 10 - - 30.4 1015.0 0.0
04/02:30pm N 11 14 - - - - 10 - - 30.5 1015.1 0.0
04/02:00pm N 12 14 - - - - 10 - - 30.8 1015.4 0.0
04/01:30pm N 12 14 - - - - 10 - - 30.8 1015.5 0.0
04/01:00pm NNE 11 15 - - - - 10 - - 30.5 1016.0 0.0
04/12:30pm NNE 12 15 - - - - 10 - - 30.7 1016.7 0.0
04/12:00pm NE 11 14 - - - - 10 - - 30.8 1017.2 0.0
04/11:30am NE 13 17 - - - - 10 - - 30.8 1017.8 0.0
04/11:00am ENE 15 19 - - - - 10 - - 30.2 1018.1 0.0
04/10:30am ENE 15 18 - - - - 10 - - 29.6 1018.3 0.0
04/10:00am ENE 14 17 - - - - 10 - - 28.3 1018.6 0.0
04/09:30am ENE 14 18 - - - - 10 - - 27.4 1018.6 0.0
04/09:00am ENE 15 19 - - - - 10 - - 26.1 1018.5 0.0
04/08:30am E 15 20 - - - - 10 - - 25.3 1018.2 0.0
04/08:00am E 13 15 - - - - 10 - - 24.2 1018.0 0.0
04/07:30am E 11 14 - - - - 10 - - 23.7 1017.9 0.0
04/07:00am E 11 15 - - - - 10 - - 23.0 1017.6 0.0
04/06:30am E 12 15 - - - - 10 - - 22.7 1017.2 0.0
04/06:00am ESE 9 11 - - - - 10 - - 22.7 1017.0 0.0
04/05:30am ESE 8 11 - - - - 10 - - 22.9 1016.8 0.0
04/05:00am E 9 12 - - - - 10 - - 22.9 1016.7 0.0
04/04:30am SE 6 7 - - - - 10 - - 22.4 1016.3 0.0
04/04:00am SE 7 8 - - - - 10 - - 22.7 1016.3 0.0
04/03:30am SSE 8 10 - - - - 10 - - 23.0 1016.4 0.0
04/03:00am SSE 10 11 - - - - 10 - - 23.2 1016.5 0.0
04/02:30am S 6 7 - - - - 10 - - 22.9 1016.3 0.0
04/02:00am S 7 10 - - - - 10 - - 22.8 1016.2 0.0
04/01:30am SSE 5 6 - - - - 10 - - 22.7 1016.1 0.0
04/01:00am SSE 5 6 - - - - 10 - - 22.8 1016.3 0.0
04/12:30am SSE 5 6 - - - - 10 - - 22.9 1016.2 0.0
04/12:00am NNW 3 3 - - - - 10 - - 23.3 1016.4 0.0
 
Date/Time
WST
Wind Sea
Height
m
Swell Vis
km
Cloud Weather Temp
°C
Press
MSL
hPa
Rain since
9am
mm
Dir  Spd
kts
Gust
kts
Height
m
Period
s
Dir
03/11:30pm NNW 3 4 - - - - 10 - - 23.6 1016.4 0.0
03/11:00pm NNW 3 4 - - - - 10 - - 23.6 1016.3 0.0
03/10:30pm NNW 2 4 - - - - 10 - - 24.2 1016.3 0.0
03/10:00pm NNW 4 5 - - - - 10 - - 24.6 1016.3 0.0
03/09:30pm NNW 5 5 - - - - 10 - - 24.8 1016.1 0.0
03/09:00pm N 5 7 - - - - 10 - - 25.2 1016.2 0.0
03/08:30pm N 5 7 - - - - 10 - - 25.5 1015.9 0.0
03/08:00pm N 6 7 - - - - 10 - - 25.9 1015.5 0.0
03/07:30pm N 9 11 - - - - 10 - - 26.2 1015.0 0.0
03/07:00pm N 9 11 - - - - 10 - - 26.3 1014.7 0.0
03/06:30pm N 9 11 - - - - 10 - - 26.5 1014.4 0.0
03/06:00pm N 9 11 - - - - 10 - - 26.9 1014.2 0.0
03/05:30pm N 9 13 - - - - 10 - - 27.6 1014.0 0.0
03/05:00pm N 12 15 - - - - 10 - - 28.1 1013.8 0.0
03/04:30pm N 13 16 - - - - 10 - - 28.7 1013.6 0.0
03/04:00pm N 13 16 - - - - 10 - - 29.1 1013.6 0.0
03/03:30pm NNE 13 16 - - - - 10 - - 29.3 1013.5 0.0
03/03:00pm NNE 13 16 - - - - 10 - - 30.0 1013.6 0.0
03/02:30pm NNE 13 17 - - - - 10 - - 29.9 1013.6 0.0
03/02:00pm NNE 12 15 - - - - 10 - - 30.6 1013.8 0.0
03/01:30pm NNE 13 17 - - - - 10 - - 30.0 1014.2 0.0
03/01:00pm NNE 13 18 - - - - 10 - - 30.2 1014.4 0.0
03/12:30pm NNE 13 19 - - - - 10 - - 29.7 1014.6 0.0
03/12:00pm NE 14 19 - - - - 10 - - 30.7 1014.9 0.0
03/11:30am NNE 16 19 - - - - 10 - - 29.7 1015.3 0.0
03/11:00am NE 15 19 - - - - 10 - - 29.9 1015.8 0.0
03/10:30am ENE 16 20 - - - - 10 - - 29.4 1016.0 0.0
03/10:00am ENE 17 21 - - - - 10 - - 28.6 1016.1 0.0
03/09:30am ENE 16 20 - - - - 10 - - 27.4 1016.1 0.0
03/09:00am ENE 17 20 - - - - 10 - - 27.0 1015.9 0.0
03/08:30am E 16 20 - - - - 10 - - 26.2 1015.7 0.0
03/08:00am E 14 17 - - - - 10 - - 25.1 1015.3 0.0
03/07:30am E 14 18 - - - - 10 - - 24.5 1015.0 0.0
03/07:00am E 9 11 - - - - 10 - - 23.4 1014.6 0.0
03/06:30am E 9 10 - - - - 10 - - 23.2 1014.1 0.0
03/06:00am E 7 8 - - - - 10 - - 22.9 1013.8 0.0
03/05:30am E 8 9 - - - - 10 - - 22.7 1013.6 0.0
03/05:00am E 8 10 - - - - 10 - - 22.8 1013.4 0.0
03/04:30am E 8 10 - - - - 10 - - 22.8 1013.3 0.0
03/04:00am SE 7 10 - - - - 10 - - 23.0 1013.2 0.0
03/03:30am E 5 6 - - - - 10 - - 23.5 1013.1 0.0
03/03:00am E 4 5 - - - - 10 - - 23.6 1013.0 0.0
03/02:30am E 4 5 - - - - 10 - - 23.6 1012.9 0.0
03/02:00am ENE 5 6 - - - - 10 - - 23.8 1013.0 0.0
03/01:30am E 5 6 - - - - 10 - - 24.2 1013.1 0.0
03/01:00am E 6 7 - - - - 10 - - 24.3 1013.1 0.0
03/12:30am E 6 6 - - - - 10 - - 24.1 1013.2 0.0
03/12:00am E 6 7 - - - - 10 - - 24.2 1013.3 0.0
 
Date/Time
WST
Wind Sea
Height
m
Swell Vis
km
Cloud Weather Temp
°C
Press
MSL
hPa
Rain since
9am
mm
Dir  Spd
kts
Gust
kts
Height
m
Period
s
Dir
02/11:30pm ESE 7 7 - - - - 10 - - 24.2 1013.4 0.0
02/11:00pm ESE 5 6 - - - - 10 - - 24.4 1013.5 0.0
02/10:30pm SSE 4 5 - - - - 10 - - 24.7 1013.5 0.0
02/10:00pm NNW 4 4 - - - - 10 - - 24.7 1013.5 0.0
02/09:30pm CALM 0 3 - - - - 10 - - 25.4 1013.6 0.0
02/09:00pm NNW 3 4 - - - - 10 - - 25.5 1013.5 0.0
02/08:30pm N 5 6 - - - - 10 - - 25.9 1013.1 0.0
02/08:00pm NNW 5 6 - - - - 10 - - 26.0 1012.8 0.0
02/07:30pm NNW 7 7 - - - - 10 - - 26.3 1012.4 0.0
02/07:00pm NNW 7 9 - - - - 10 - - 26.7 1012.2 0.0
02/06:30pm N 8 9 - - - - 10 - - 27.0 1011.9 0.0
02/06:00pm N 9 11 - - - - 10 - - 27.3 1011.5 0.0
02/05:30pm N 10 13 - - - - 10 - - 27.9 1011.3 0.0
02/05:00pm N 10 14 - - - - 10 - - 28.7 1011.0 0.0
02/04:30pm N 11 15 - - - - 10 - - 29.2 1010.9 0.0
02/04:00pm N 12 15 - - - - 10 - - 29.6 1010.8 0.0
02/03:30pm NNW 10 13 - - - - 10 - - 30.3 1011.0 0.0
02/03:00pm NNW 11 15 - - - - 10 - - 30.5 1011.1 0.0
02/02:30pm N 13 16 - - - - 10 - - 31.0 1011.2 0.0
02/02:00pm N 13 16 - - - - 10 - - 31.2 1011.4 0.0
02/01:30pm N 13 16 - - - - 10 - - 31.6 1011.5 0.0
02/01:00pm NNE 13 16 - - - - 10 - - 32.7 1011.8 0.0
02/12:30pm ENE 9 14 - - - - 10 - - 33.5 1012.1 0.0
02/12:00pm ENE 8 11 - - - - 10 - - 32.6 1012.6 0.0
02/11:30am E 12 15 - - - - 10 - - 32.6 1012.9 0.0
02/11:00am ESE 13 17 - - - - 10 - - 31.4 1013.4 0.0
02/10:30am SE 14 17 - - - - 10 - - 30.3 1013.7 0.0
02/10:00am SE 16 19 - - - - 10 - - 28.9 1014.0 0.0
02/09:30am SE 16 19 - - - - 10 - - 27.5 1014.1 0.0
02/09:00am SE 17 21 - - - - 10 - - 27.2 1014.0 0.0
02/08:30am SSE 13 17 - - - - 10 - - 25.5 1013.9 0.0
02/08:00am SSE 13 16 - - - - 10 - - 24.4 1013.8 0.0
02/07:30am SSE 11 13 - - - - 10 - - 23.3 1013.3 0.0
02/07:00am SSE 11 13 - - - - 10 - - 22.8 1013.0 0.0
02/06:30am S 11 14 - - - - 10 - - 22.8 1012.6 0.0
02/06:00am S 13 16 - - - - 10 - - 23.1 1012.3 0.0
02/05:30am S 14 18 - - - - 10 - - 23.3 1012.0 0.0
02/05:00am S 13 18 - - - - 10 - - 23.4 1011.7 0.0
02/04:30am S 13 17 - - - - 10 - - 23.3 1011.5 0.0
02/04:00am S 14 17 - - - - 10 - - 23.5 1011.7 0.0
02/03:30am S 12 16 - - - - 10 - - 23.7 1012.1 0.0
02/03:00am S 13 16 - - - - 10 - - 23.8 1012.1 0.0
02/02:30am S 12 15 - - - - 10 - - 23.8 1012.2 0.0
02/02:00am S 11 15 - - - - 10 - - 24.0 1012.6 0.0
02/01:30am S 12 15 - - - - 10 - - 24.3 1012.8 0.0
02/01:00am S 12 17 - - - - 10 - - 24.5 1012.9 0.0
02/12:30am S 13 16 - - - - 10 - - 24.8 1013.1 0.0
02/12:00am S 13 16 - - - - 10 - - 25.2 1013.0 0.0
 
Date/Time
WST
Wind Sea
Height
m
Swell Vis
km
Cloud Weather Temp
°C
Press
MSL
hPa
Rain since
9am
mm
Dir  Spd
kts
Gust
kts
Height
m
Period
s
Dir
01/11:30pm S 15 20 - - - - 10 - - 25.5 1013.1 0.0
01/11:00pm S 14 18 - - - - 10 - - 25.7 1013.3 0.0
01/10:30pm S 14 18 - - - - 10 - - 26.1 1013.3 0.0
01/10:00pm SSW 15 19 - - - - 10 - - 26.4 1013.5 0.0

Other formats

Comma delimited format used in spreadsheet applications
http://www.bom.gov.au/fwo/IDW60701/IDW60701.95305.axf

JavaScript Object Notation format (JSON) in row-major order
http://www.bom.gov.au/fwo/IDW60701/IDW60701.95305.json

Data quality

Most of these data are generated automatically and are frequently updated. Quality checks on data are not normally performed. It is possible for incorrect values to appear. Refer to information at About Latest Weather Observations and please check the disclaimer before using these data.